Norman Manley International Airport
MKJP : now visible

Airfield :











YOU CAN JOIN US ON...

 
LOGIN :

Register | Disclaimer

   EN    FR    IT 

 









Legend :    VFR   Marginal VFR   IFR   Intensive IFR   Very Intensive IFR
Visi :
Ceiling :
>= 8 km
>= 3000ft
5 to 8 km
1000 to 3000 ft
1500m to 5 km
500 to 1000 ft
800 to 1500m
200 to 500 ft
< 800m
< 200 ft
Symbols :   Thunderstorms  Fog  Heavy snow  Heavy precipitations  Wind > 20 kt






- Airport Elevation : 10 ft
- IATA code : KIN


MKJP - Norman Manley International

CURRENT METAR :
  • 082000Z 12019KT 9999 SCT020 BKN070 30/20 Q1014

EXPIRED METARs :
  • 081900Z 12025KT 9999 BKN020 30/19 Q1014
  • 081838Z 12029KT 9999 SCT022 30/21 Q1014
  • 081800Z 13017KT 9999 FEW022 30/23 Q1015

TAF TAF MKJP
Valid from the 08 at 18:00 until the 09 at 18:00 UTC


081715Z 0818/0918 14019KT 9999 FEW022
BECMG 0900/0902 36005KT
BECMG 0914/0916 16013KT
MKJK FIR / North America



MET'MAP, your aeronautical weather chart ! - Copyright ORBIFLY December 2007 - Disclaimer

ORBIFLY MET'MAP TEAM :

Programming & Development : Alexandra Zaïnal
Concept & original design : Baudouin d'Aumeries
Assistance for programming : Marc-Olivier Méhu
Technical & hardware support : Manuel Goepfert

Contact : metmap@orbifly.com




SOURCES & CREDITS :

   NOAA       Earth
Advisory